Location: San Antonio
(29.4240°N, 98.4930°W)
Time: 08:14:14
(UTC-05:00)

Envisat - Pass Details

Date: 26 June 2024
Orbit: 762 x 764 km, 98.3° (Epoch: 12 July)

Event Time Altitude Azimuth Distance (km) Brightness Sun altitude
Rises 03:34:53 0° 35° (NE) 3,225 7.4 -30.1°
Reaches altitude 10° 03:38:05 10° 57° (ENE) 2,295 6.2 -29.7°
Maximum altitude 03:41:09 16° 95° (E) 1,901 5.3 -29.4°
Enters shadow 03:42:55 14° 118° (ESE) 2,037 5.2 -29.2°
